Terug naar catalogus

ATLAS 5 CENTAUR DEB

LostHEO
NORAD 46849·DEBRIS·🇺🇸 United States

Gelanceerd Oct 17, 2018 vanaf Cape Canaveral Space Force Station

Loading…

Volgende Passages (komende 24 uur)

TLE

VerouderdSource: Space-Track

Epoch: Jan 3, 2025, 12:40 UTC

1 46849U 18079DE  25003.52808240 -.00000111  00000-0  00000+0 0  9998
2 46849  13.1211  86.0857 5236048 198.6351 130.9870  1.63694718 24961

Volg ATLAS 5 CENTAUR DEB in realtime met AllMySat

Download on the App Store